SCP
1 1 1 1 1 1 1 0 0 0 0 0 1 1 1 1 1 0 0 0 0 0 0 0 0 0 0 0 0 0 0 0 0 0 0 0 0 0 0 0 0 0 0
1 1 1 1 1 1 1 1 1 0 0 0 1 1 1 1 1 0 0 0 0 0 0 0 0 0 0 0 0 0 0 0 0 0 0 0 0 0 0 0 0 0 0
2 2 2 1 1 1 1 1 1 0 0 0 1 1 1 1 0 0 0 0 0 0 0 0 0 0 0 0 0 0 0 0 0 0 0 0 0 0 0 0 0 0 0
2 2 2 1 1 2 1 1 1 1 1 1 1 1 1 0 0 0 1 1 0 0 0 0 0 1 1 0 0 0 0 0 0 0 1 0 0 0 0 0 0 0 0
2 2 2 2 2 2 1 1 1 1 1 1 1 1 1 1 0 0 0 1 1 1 0 0 0 1 1 1 1 0 0 0 0 1 1 0 0 0 1 0 0 0 0
2 2 2 2 2 2 2 1 1 1 1 1 0 1 1 1 0 0 0 1 1 1 1 1 1 1 1 1 1 0 0 0 0 0 0 0 0 0 0 0 0 0 0
2 2 2 2 2 2 1 1 1 1 1 1 0 0 0 1 0 0 0 0 1 1 1 1 1 1 1 1 1 0 0 0 0 0 0 0 0 0 0 0 0 0 0
2 2 2 2 1 1 1 1 1 1 1 0 0 0 0 1 1 1 1 1 1 1 1 1 1 1 1 1 1 0 0 0 0 0 0 0 0 0 0 0 0 0 0
2 2 2 2 2 1 1 1 1 1 1 0 0 1 1 1 1 1 1 1 1 1 1 1 1 1 1 1 1 1 0 0 0 0 0 0 0 0 0 0 0 0 0
3 3 3 3 2 2 1 1 1 1 1 1 1 1 1 1 1 1 1 1 1 1 1 1 1 1 1 1 1 1 1 1 1 1 0 0 0 0 0 0 0 0 0
4 3 3 3 3 2 2 1 1 1 1 1 1 1 1 1 1 1 1 1 1 1 0 0 1 1 1 1 1 1 1 1 1 1 1 1 1 0 0 0 0 0 0
4 4 3 3 3 3 2 2 1 1 1 1 1 1 1 1 1 1 0 0 0 0 0 1 1 1 1 1 1 1 1 1 1 1 1 1 1 1 1 0 0 0 0
4 4 4 4 3 3 2 2 2 2 2 2 2 2 1 1 1 1 1 0 0 0 1 1 1 1 1 1 1 1 1 1 1 1 0 0 0 0 0 0 0 0 0
3 4 5 4 3 3 2 2 2 2 2 2 2 1 1 1 1 1 1 0 0 0 1 1 1 1 1 1 1 1 1 1 0 0 0 0 0 0 0 0 0 0 0
3 4 5 4 3 3 2 2 2 2 2 1 1 1 1 1 1 1 1 0 0 0 0 1 1 1 1 1 1 1 1 1 0 0 0 0 0 0 0 0 0 0 0
3 4 4 4 3 3 3 2 2 2 2 1 1 1 0 0 0 1 1 1 1 1 1 1 1 1 1 1 1 1 1 1 0 0 0 0 0 0 0 0 0 0 0
3 4 4 3 3 3 3 3 2 2 2 2 1 1 1 1 1 1 1 1 1 1 1 1 1 1 2 1 1 1 1 1 0 0 0 0 0 0 0 0 0 0 0
3 3 3 3 3 2 2 2 2 2 2 2 1 1 1 1 1 1 1 1 1 1 1 1 1 2 2 1 1 1 1 0 0 0 0 0 0 0 0 0 0 0 0
3 3 3 3 3 3 2 2 2 2 2 2 2 1 1 1 1 1 1 1 1 1 1 1 1 1 1 1 1 1 1 1 0 0 0 0 0 0 0 0 0 0 0
3 3 4 4 3 3 3 2 2 2 2 2 2 2 1 1 1 1 1 1 1 1 1 1 1 1 1 1 1 1 1 1 1 1 0 0 0 0 0 0 0 0 0
3 3 3 4 4 3 2 2 2 1 2 2 2 1 1 1 1 1 1 1 1 1 1 1 1 1 1 1 2 2 1 1 1 1 1 1 0 0 0 0 0 0 0
2 2 3 3 3 2 1 1 1 1 2 2 2 1 1 1 1 1 1 1 1 1 1 1 1 1 1 2 2 2 1 1 1 1 1 1 1 1 1 0 0 0 0
2 2 3 3 2 2 1 0 1 1 2 2 2 2 1 1 1 1 1 1 1 1 1 1 1 1 1 2 2 2 1 1 1 1 1 1 1 1 1 1 0 0 0
3 3 3 3 3 2 1 0 0 1 2 2 2 2 2 1 1 2 2 1 1 1 1 0 1 1 1 1 1 1 1 1 1 1 1 1 1 1 1 1 0 0 0
4 4 4 3 3 3 1 0 0 1 1 2 2 2 2 2 1 1 2 2 2 2 1 1 0 0 0 0 0 1 1 1 1 1 1 1 1 1 1 1 0 0 0
4 4 4 4 3 3 2 0 0 1 1 1 2 2 1 1 1 1 1 2 2 2 1 1 1 0 0 0 0 0 0 1 1 1 1 1 1 1 1 0 0 0 0
Wind_Speed
4 4 3 2 3 3 3 1 2 2 1 1 1 2 2 5 6 7 6 11 10 9 9 9 8 7 7 6 6 6 5 6 6 6 5 6 6 6 5 5 5 5 4
4 4 4 2 2 3 2 2 3 2 1 1 2 2 2 3 5 7 7 7 10 9 9 8 8 8 7 7 6 6 5 6 6 6 5 5 5 5 5 5 5 5 5
5 4 4 2 2 3 3 2 2 2 2 2 1 1 1 1 4 6 7 6 6 8 8 8 8 7 7 7 6 6 5 5 6 6 6 6 5 5 5 5 5 5 5
6 4 4 3 3 3 2 2 1 1 1 1 1 1 1 1 3 4 5 5 5 6 7 9 8 8 8 7 7 7 6 6 6 6 7 7 6 6 6 6 6 6 6
6 4 3 3 3 2 2 2 2 1 1 1 2 2 2 2 2 3 4 5 5 6 6 8 9 9 8 8 8 7 7 7 6 7 7 7 7 7 7 7 7 7 7
6 4 4 4 3 2 2 2 2 1 1 1 2 2 1 2 3 2 3 4 5 7 7 7 6 6 9 8 7 7 7 7 6 7 7 7 7 7 7 7 7 7 7
6 4 4 5 3 2 2 3 2 2 2 1 0 1 1 2 2 3 2 2 4 5 6 7 5 5 5 8 7 7 7 7 7 7 7 6 6 6 6 7 7 8 8
7 6 5 5 4 3 3 2 2 2 2 2 1 1 2 1 2 3 3 3 3 4 4 7 5 5 4 4 6 8 7 6 6 6 5 5 5 5 6 6 6 7 7
7 5 6 5 4 4 3 3 3 3 2 2 2 1 1 1 2 2 3 3 3 2 2 3 5 5 5 5 5 7 7 6 6 6 5 4 4 5 5 5 5 6 6
7 6 6 5 4 3 4 4 5 3 3 2 2 1 1 0 0 1 2 2 4 3 2 2 3 4 4 4 6 9 9 7 6 5 5 5 5 5 5 6 6 5 5
7 7 6 5 4 3 4 3 3 3 2 3 2 2 2 1 3 2 2 3 3 3 3 3 2 3 4 5 5 9 11 9 7 6 5 4 4 5 6 6 6 6 6
5 7 7 5 5 4 4 3 3 3 2 1 1 1 2 2 2 2 2 4 4 3 4 3 3 3 3 4 7 12 12 10 8 7 5 4 4 4 5 6 6 7 7
6 7 7 5 5 4 4 4 3 3 3 2 2 2 2 1 1 1 1 2 1 2 3 3 3 3 3 3 5 13 11 11 9 8 7 6 5 5 5 5 6 7 7
6 7 6 6 5 5 5 4 4 4 3 3 3 2 2 2 2 1 1 1 1 2 3 4 3 4 3 4 8 11 8 12 11 10 9 8 7 7 7 6 7 7 7
6 8 7 7 6 5 5 5 3 4 3 3 3 3 2 2 2 2 1 1 1 2 2 3 2 3 3 3 9 6 5 12 13 12 11 10 10 9 9 8 8 8 8
6 8 7 7 6 6 5 5 4 4 4 4 3 3 2 2 2 2 2 1 1 1 2 1 1 2 3 4 8 5 4 11 14 14 13 12 12 11 11 10 10 10 10
7 7 7 6 6 6 5 5 4 5 5 5 4 4 3 3 2 2 2 1 1 1 2 2 1 1 3 2 3 3 3 5 7 14 15 15 14 13 13 12 12 11 11
7 7 7 6 7 7 6 6 6 6 6 6 5 4 4 4 3 2 2 2 2 1 2 3 2 1 2 4 4 4 5 6 5 11 16 16 16 15 14 14 13 13 13
7 8 7 7 7 7 7 6 6 5 6 6 6 5 5 5 4 3 3 3 2 3 2 2 3 2 2 3 4 5 6 5 7 8 12 15 15 15 15 15 15 14 14
8 8 8 7 7 7 7 7 7 6 5 5 5 5 5 6 6 5 4 4 4 3 3 3 4 3 3 4 3 3 4 4 6 7 6 8 13 17 17 17 16 16 16
9 8 8 7 7 7 8 8 7 8 6 6 5 5 6 7 6 5 5 4 4 4 4 4 4 4 4 3 3 3 5 4 5 5 4 4 5 7 9 14 17 18 17
7 8 8 8 8 8 9 11 8 6 6 6 6 5 6 6 8 9 8 7 5 5 5 4 4 4 4 4 3 3 3 3 4 3 3 4 4 4 5 6 12 17 18
7 7 7 7 7 6 8 10 11 6 5 5 6 5 7 7 8 7 9 11 10 11 9 5 6 6 5 4 3 4 4 4 5 4 3 5 4 5 5 7 9 12 15
6 6 6 6 6 7 9 9 10 7 5 5 5 5 6 5 5 5 6 7 8 8 9 9 8 9 8 5 4 4 5 6 6 5 5 6 6 6 7 5 8 10 13
6 5 5 5 5 5 7 9 9 5 5 5 6 5 5 5 5 6 5 6 6 6 9 11 11 11 11 11 7 4 5 5 7 6 5 5 6 6 6 5 7 11 13
5 5 4 4 4 3 4 6 7 4 4 5 5 5 5 5 5 6 5 5 6 6 5 6 6 9 10 11 12 9 7 7 7 6 5 4 5 4 5 5 5 5 6
Wind_Direction
143 139 138 157 159 148 155 154 103 90 70 65 105 94 78 98 116 122 134 148 148 151 154 154 155 156 157 160 163 164 164 163 161 162 162 163 161 157 155 152 152 151 149
137 136 144 163 140 137 130 137 126 137 171 88 78 81 62 94 118 130 140 152 156 159 163 165 167 170 172 175 180 185 184 182 176 175 178 182 181 177 176 177 174 175 171
139 144 148 162 134 120 118 132 131 152 166 151 135 124 118 117 122 131 144 153 158 166 170 172 174 177 181 183 189 194 194 196 194 190 190 194 197 197 197 195 193 191 190
150 152 152 152 137 136 145 135 169 164 115 132 153 182 126 120 138 145 153 157 157 163 175 182 183 186 189 192 196 199 200 201 202 200 200 204 209 210 208 208 207 205 205
162 165 142 129 153 148 154 175 148 134 144 180 191 175 182 160 148 175 157 156 154 155 164 181 187 190 196 200 203 205 205 205 204 208 211 213 216 215 213 213 215 214 214
166 166 137 141 166 151 132 104 122 127 159 220 239 158 174 152 170 165 180 168 160 168 168 166 178 194 201 202 204 206 206 204 205 211 216 219 220 217 215 216 218 219 220
162 171 148 152 168 150 151 154 148 167 209 195 216 153 192 190 172 154 193 176 169 169 160 164 178 177 184 197 200 201 204 206 207 211 215 217 223 221 217 220 223 225 227
163 177 152 166 164 152 167 169 155 183 214 183 194 178 178 200 224 194 177 182 178 165 172 175 169 169 175 166 189 194 199 202 205 208 211 212 215 216 218 223 226 227 229
171 176 165 170 167 173 168 178 177 206 220 208 206 203 210 185 178 181 208 175 148 161 191 165 174 167 176 163 162 184 188 192 200 206 206 206 210 214 216 222 228 230 231
175 176 174 169 171 171 159 195 187 204 205 223 214 201 195 73 183 148 220 169 165 182 216 202 183 168 177 153 155 164 173 178 187 200 208 213 217 219 221 227 234 239 240
181 180 173 164 171 176 169 193 168 206 207 224 226 206 212 212 241 205 192 176 188 185 192 203 198 181 179 163 164 167 170 174 180 191 201 209 217 222 227 233 240 245 248
183 180 172 167 178 180 168 178 171 201 229 247 284 264 205 208 232 241 199 192 195 194 180 176 185 197 191 178 177 162 168 174 180 187 197 209 220 227 233 237 244 251 255
180 180 173 168 180 170 167 171 180 204 207 215 245 281 288 261 254 270 243 225 190 170 166 186 194 192 203 154 145 161 174 178 185 192 201 212 222 230 236 241 249 256 261
175 167 162 169 174 171 177 172 190 197 188 200 230 247 301 300 309 295 287 288 256 226 192 201 185 184 188 150 162 174 178 186 193 201 209 216 223 229 234 239 246 253 260
167 160 164 171 174 176 177 172 203 190 170 193 222 214 244 271 281 289 285 270 241 265 244 208 179 177 171 142 160 189 179 193 201 208 213 220 226 229 233 238 242 246 250
160 158 164 169 171 174 177 182 194 181 182 206 218 206 214 259 251 253 263 263 261 267 281 265 201 169 171 178 172 201 203 191 205 212 216 221 225 228 232 237 241 244 246
157 161 167 170 172 178 181 187 206 180 192 206 215 204 202 253 287 283 258 254 255 261 271 288 269 166 145 152 159 220 231 208 211 216 218 222 225 228 231 235 238 242 245
164 167 174 177 183 186 186 193 213 198 196 201 209 213 203 215 222 267 285 266 251 237 252 279 279 217 190 192 194 217 241 245 238 222 216 221 224 227 230 233 236 239 242
176 177 182 187 192 192 191 199 211 215 207 205 206 209 211 216 216 221 240 264 265 254 221 251 266 250 223 216 208 225 241 253 263 255 222 220 225 228 231 234 236 237 239
181 183 186 191 195 197 197 201 210 218 217 214 211 210 213 215 215 216 228 238 257 269 251 243 256 253 237 220 202 219 242 236 244 259 250 223 221 227 232 235 236 237 238
189 187 191 197 198 203 207 203 206 212 212 218 220 217 221 219 216 210 226 223 232 240 248 244 247 249 243 234 220 222 241 247 241 239 244 245 224 225 231 237 240 241 240
193 188 195 201 204 213 207 199 199 211 203 210 219 223 225 220 216 215 226 234 235 239 247 254 258 256 252 245 241 245 254 262 267 256 249 261 257 242 232 227 230 230 234
193 194 197 198 206 217 203 192 198 207 212 213 214 215 232 232 213 217 222 229 239 241 236 247 264 271 281 288 292 280 274 275 270 276 281 271 261 262 257 262 248 232 232
190 194 198 200 204 214 198 192 197 210 226 230 229 224 226 250 239 226 228 228 232 236 232 231 243 253 263 273 274 273 272 274 268 261 253 263 263 261 267 264 260 250 239
189 193 194 203 209 211 195 193 193 208 222 235 241 242 232 228 234 231 233 241 245 247 240 238 234 241 245 249 249 264 264 263 267 264 245 250 260 264 262 262 260 255 248
187 189 194 198 202 202 185 188 194 217 226 235 234 236 245 243 241 226 236 246 253 260 272 271 252 249 248 248 238 229 242 252 261 267 253 249 262 269 272 256 256 260 253